Location: Unspecified
(0.0000°N, 0.0000°E)
Time: 11:05:27
(UTC+02:00)

USA 116 - Visible Passes

Search period start: 28 August 2014 00:00
Search period end: 07 September 2014 00:00
Orbit: 405 x 834 km, 97.9° (Epoch: 18 November)

Date Brightness Start Highest point End Pass type
(mag) Time Alt. Az. Time Alt. Az. Time Alt. Az.
28 Aug 4.3 06:26:45 10° S 06:32:01 62° WSW 06:36:55 10° NNW visible
29 Aug 7.3 05:08:55 10° ESE 05:11:00 12° E 05:13:02 10° NE visible
29 Aug 4.7 06:41:47 10° S 06:46:44 40° WSW 06:51:20 10° NW visible
30 Aug 6.8 05:22:10 10° SE 05:25:46 19° E 05:29:11 10° NE visible
30 Aug 5.2 06:57:04 10° SSW 07:01:25 26° WSW 07:05:30 10° NW visible
31 Aug 6.1 05:36:07 10° SE 05:40:33 29° E 05:44:39 10° NNE visible
31 Aug 5.7 07:12:45 10° SW 07:16:05 17° WSW 07:19:15 10° WNW visible
01 Sep 5.3 05:50:24 10° SSE 05:55:19 44° E 05:59:47 10° N visible
01 Sep 6.1 07:29:34 10° WSW 07:30:43 11° WSW 07:31:51 10° W visible
02 Sep 4.5 06:04:56 10° SSE 06:10:04 69° ENE 06:14:41 10° N visible
03 Sep 4.1 06:19:40 10° S 06:24:47 77° WSW 06:29:23 10° NNW visible
04 Sep 4.4 06:34:36 10° S 06:39:29 48° WSW 06:43:53 10° NNW visible
05 Sep 7.1 05:15:59 10° ESE 05:18:24 14° E 05:20:42 10° NE visible
05 Sep 4.9 06:49:46 10° SSW 06:54:09 31° WSW 06:58:09 10° NW visible
06 Sep 6.5 05:29:31 10° SE 05:33:10 21° E 05:36:32 10° NNE visible
06 Sep 5.4 07:05:16 10° SSW 07:08:47 20° WSW 07:12:04 10° WNW visible
